IU1DOF-3 Weather Reports


Display with metric or nautical units.
time (UTC)temp
F
wind
direction
speed
MPH
gust
MPH
rain 1hr
in
rain 24hr
in
rain mn
in
humidity
%
barometer
mb
20260505191803 49 295 0.0 0.0 0.00 0.00 0.71 98 1010.6
20260505190740 49 295 0.0 0.0 0.00 0.00 0.71 98 1010.4
20260505185716 49 294 0.0 0.0 0.00 0.00 0.71 98 1010.5
20260505184651 50 294 0.0 0.0 0.00 0.00 0.71 97 1010.4
20260505183640 50 294 0.0 0.0 0.00 0.00 0.71 97 1010.5
20260505182625 50 294 0.0 0.0 0.04 0.00 0.71 97 1010.6
20260505181556 50 294 0.0 1.0 0.00 0.00 0.70 96 1010.4
20260505180540 50 294 0.0 0.0 0.00 0.00 0.70 95 1010.6
20260505175523 50 294 0.0 1.0 0.00 0.00 0.70 95 1010.7
20260505174459 50 295 0.0 0.0 0.00 0.00 0.70 96 1010.7
20260505173440 50 294 0.0 0.0 0.00 0.00 0.70 96 1010.6
20260505172427 50 294 0.0 0.0 0.00 0.00 0.70 97 1010.7
20260505171404 49 294 0.0 0.0 0.00 0.00 0.70 97 1010.5
20260505170339 50 294 0.0 1.0 0.00 0.00 0.70 96 1010.7
20260505165315 50 293 1.0 1.0 0.00 0.00 0.70 95 1010.6
20260505164251 50 293 1.0 2.0 0.00 0.00 0.70 94 1010.6
20260505163241 50 294 0.0 1.0 0.00 0.00 0.70 93 1010.7
20260505162220 50 294 0.0 1.0 0.00 0.00 0.70 93 1010.6
20260505161159 51 293 0.0 1.0 0.00 0.00 0.70 92 1010.7
20260505160141 51 294 0.0 0.0 0.00 0.00 0.70 93 1010.6
20260505153040 51 293 1.0 1.0 0.00 0.00 0.70 92 1010.7
20260505152027 51 293 0.0 1.0 0.00 0.00 0.70 92 1010.7
20260505151003 51 293 0.0 0.0 0.00 0.00 0.70 91 1010.7
20260505124532 54 294 0.0 0.0 0.00 0.00 0.70 86 1011.1
20260505123524 54 295 0.0 1.0 0.00 0.00 0.70 86 1011.0
20260505122515 53 293 2.0 3.0 0.00 0.00 0.70 88 1011.3
20260505121507 53 294 4.0 5.0 0.00 0.00 0.70 86 1011.2
20260505120500 53 294 1.0 2.0 0.00 0.00 0.70 84 1011.2
20260505120442 54 294 1.0 2.0 0.00 0.00 0.70 84 1011.3
20260505120433 54 293 1.0 2.0 0.00 0.00 0.70 85 1011.4
20260505114524 54 298 0.0 1.0 0.00 0.00 0.70 82 1011.3
20260505102133 53 298 0.0 1.0 0.00 0.00 0.70 80 1011.8
20260505102125 53 298 0.0 0.0 0.00 0.00 0.70 80 1011.8
20260505101041 53 298 1.0 2.0 0.00 0.00 0.70 84 1011.6
20260505100028 53 298 3.0 4.0 0.00 0.00 0.70 87 1011.7
20260505095004 51 297 1.0 2.0 0.00 0.00 0.70 86 1011.7
20260505093955 52 298 1.0 2.0 0.00 0.00 0.70 86 1011.9
20260505092942 52 298 0.0 1.0 0.07 0.00 0.70 84 1011.8
20260505091924 51 298 0.0 0.0 0.00 0.00 0.69 84 1011.9
20260505090900 51 298 1.0 2.0 0.00 0.00 0.69 85 1011.8
20260505085840 51 298 1.0 1.0 0.00 0.00 0.69 84 1011.5
20260505084828 50 298 0.0 0.0 0.00 0.00 0.69 88 1011.6
20260505083804 50 298 0.0 0.0 0.00 0.00 0.69 90 1011.4
20260505082740 49 298 0.0 1.0 0.00 0.00 0.69 93 1011.7
20260505081716 49 298 0.0 0.0 0.00 0.00 0.69 97 1011.4
20260505080652 48 298 0.0 2.0 0.00 0.00 0.69 98 1011.5
20260505075640 49 300 0.0 0.0 0.00 0.00 0.69 99 1011.4
20260505074622 47 300 1.0 2.0 0.00 0.00 0.69 99 1011.6
20260505073556 47 301 0.0 0.0 0.00 0.00 0.69 99 1011.7
20260505072540 46 301 0.0 0.0 0.00 0.00 0.69 99 1011.6
20260505071524 45 301 0.0 0.0 0.00 0.00 0.69 99 1011.7
20260505070501 46 301 0.0 1.0 0.00 0.00 0.69 99 1011.9
20260505065440 45 301 0.0 0.0 0.00 0.00 0.69 99 1011.6
20260505064428 44 301 0.0 0.0 0.00 0.00 0.69 99 1011.9
20260505063405 45 301 0.0 0.0 0.00 0.00 0.69 99 1011.7
20260505062341 44 301 0.0 0.0 0.00 0.00 0.69 99 1011.7
20260505061316 44 301 0.0 0.0 0.00 0.00 0.69 99 1011.7
20260505060253 44 301 0.0 0.0 0.00 0.00 0.69 99 1011.8
20260505055240 45 301 0.0 0.0 0.00 0.00 0.69 99 1011.5
20260505054220 44 301 0.0 0.0 0.00 0.00 0.69 99 1011.3
20260505053156 44 301 0.0 0.0 0.00 0.00 0.69 99 1011.6
20260505052140 44 301 0.0 0.0 0.00 0.00 0.69 99 1011.5
20260505051124 43 301 0.0 0.0 0.00 0.00 0.69 99 1011.5
20260505040916 43 301 0.0 0.0 0.00 0.00 0.69 99 1011.8
20260505035852 43 301 0.0 0.0 0.00 0.00 0.69 99 1012.1
20260505034841 43 302 1.0 2.0 0.04 0.00 0.69 99 1012.0
20260505033820 43 301 0.0 0.0 0.00 0.00 0.68 99 1012.0
20260505032756 43 301 0.0 1.0 0.07 0.00 0.68 99 1012.3
20260505031740 45 300 1.0 1.0 0.11 0.00 0.67 99 1012.5
20260505030724 45 300 0.0 0.0 0.35 0.00 0.65 99 1012.4
20260505025701 46 299 0.0 0.0 0.78 0.00 0.59 99 1012.2
20260505024640 46 300 0.0 1.0 0.54 0.00 0.46 99 1012.8
20260505023628 47 300 1.0 1.0 0.30 0.00 0.37 99 1013.0
20260505022604 47 299 0.0 0.0 0.30 0.00 0.31 99 1012.9
20260505021543 47 299 0.0 0.0 0.23 0.00 0.28 99 1012.9
20260505020532 47 300 0.0 0.0 0.26 0.00 0.24 99 1012.9
20260505015524 47 300 0.0 0.0 0.11 0.00 0.19 99 1012.9
20260505014500 47 299 0.0 0.0 0.04 0.00 0.17 99 1012.9
20260505013436 47 300 0.0 0.0 0.07 0.00 0.16 99 1012.8
20260505012412 47 300 0.0 0.0 0.11 0.00 0.15 99 1012.9
20260505011404 47 300 0.0 0.0 0.23 0.00 0.13 99 1012.9
20260505010356 47 299 0.0 0.0 0.18 0.00 0.09 99 1013.1
20260505005333 47 299 0.0 0.0 0.11 0.00 0.06 99 1013.2
20260505004324 47 299 0.0 0.0 0.11 0.00 0.04 99 1013.4
20260505003316 47 299 0.0 0.0 0.04 0.00 0.02 99 1013.3
20260505002308 47 299 0.0 0.0 0.07 0.00 0.02 99 1013.3
20260505001300 47 299 0.0 0.0 0.07 0.00 0.02 99 1013.5
20260505000252 47 299 0.0 0.0 0.00 0.00 0.00 99 1013.7
20260504235241 47 299 0.0 0.0 0.00 0.00 0.00 99 1014.1
20260504234204 47 299 0.0 0.0 0.04 0.00 0.00 99 1014.2
20260504233141 47 299 0.0 0.0 0.00 0.00 0.00 99 1014.3
20260504232132 47 299 0.0 0.0 0.00 0.00 0.00 99 1014.3
20260504231124 47 299 0.0 0.0 0.00 0.00 0.00 99 1014.6
20260504230116 47 299 0.0 0.0 0.07 0.00 0.00 99 1014.8
20260504225108 47 299 0.0 0.0 0.00 0.00 0.31 99 1015.0
20260504224100 47 299 0.0 0.0 0.07 0.00 0.31 99 1015.0
20260504223036 48 299 1.0 2.0 0.11 0.00 0.29 99 1014.9
20260504222028 48 298 1.0 2.0 0.04 0.00 0.28 99 1015.1
20260504221005 48 299 0.0 0.0 0.07 0.00 0.27 99 1015.2
20260504215956 48 299 0.0 0.0 0.11 0.00 0.26 99 1015.3
20260504214948 48 299 0.0 1.0 0.00 0.00 0.24 99 1015.4
20260504212932 48 300 0.0 0.0 0.04 0.00 0.24 99 1015.2
20260504211909 48 300 0.0 0.0 0.00 0.00 0.23 99 1015.4
20260504210900 48 300 0.0 0.0 0.00 0.00 0.23 99 1015.7
20260504205852 48 300 0.0 0.0 0.07 0.00 0.23 99 1015.3
20260504204840 48 300 0.0 0.0 0.04 0.00 0.22 99 1015.4
20260504203821 48 300 0.0 0.0 0.07 0.00 0.21 99 1015.7
20260504202757 48 300 0.0 0.0 0.00 0.00 0.20 99 1015.6
20260504201733 48 300 0.0 0.0 0.00 0.00 0.20 99 1015.4
20260504200709 48 300 0.0 0.0 0.04 0.00 0.20 99 1015.6
20260504195645 48 299 1.0 1.0 0.00 0.00 0.19 99 1015.5
20260504194636 48 300 2.0 3.0 0.18 0.00 0.19 99 1015.5
20260504193628 48 299 1.0 2.0 0.23 0.00 0.16 99 1015.6
20260504192620 48 300 1.0 2.0 0.16 0.00 0.13 99 1015.4